Philip, SD

3:40 AM MDT on May 29, 2017 (GMT -0600)
Philip

Weather History for KPHP - April, 2014

Change the Weather History Date:

Friday, April 18, 2014

  Actual Average Record
Temperature  
Mean Temperature 58 °F 47 °F  
Max Temperature 83 °F 61 °F 89 °F (1987)
Min Temperature 32 °F 33 °F 16 °F (1988)
Degree Days  
Heating Degree Days 7 18  
Month to date heating degree days 402 377  
Since 1 July heating degree days 6995 6680  
Cooling Degree Days 0 0  
Month to date cooling degree days 0 0  
Year to date cooling degree days 0 0  
Growing Degree Days 7 (Base 50)    
Moisture  
Dew Point 36 °F    
Average Humidity 55    
Maximum Humidity 89    
Minimum Humidity 20    
Precipitation  
Precipitation 0.00 in 0.07 in 1.12 in (1986)
Month to date precipitation 0.54 0.86  
Year to date precipitation 1.56 2.91  
Sea Level Pressure  
Sea Level Pressure 29.76 in    
Wind  
Wind Speed 15 mph (SSE)    
Max Wind Speed 26 mph    
Max Gust Speed 36 mph    
Visibility 10 miles    
Events      
T = Trace of Precipitation, MM = Missing Value Source: NWS Daily Summary

Daily Weather History Graph

Daily Weather History Graph

Search for Another Location

Airport or City:

Trip Planner

Search our weather history database for the weather conditions in past years. The results will help you decide how hot, cold, wet, or windy it might be!

Date:

Astronomy

Apr. 18, 2014 Rise Set
Actual Time 5:58 AM MDT 7:34 PM MDT
Civil Twilight 5:27 AM MDT 8:04 PM MDT
Nautical Twilight 4:50 AM MDT 8:41 PM MDT
Astronomical Twilight 4:11 AM MDT 9:21 PM MDT
Moon 11:26 PM MDT (4/18) 8:17 AM MDT (4/18)
Length of Visible Light 14h 36m
Length of Day
13h 36m
Waning Gibbous, 86% of the Moon is Illuminated
Apr 18
Waning Gibbous
Apr 22
Last Quarter
Apr 29
New
May 6
First Quarter
May 14
Full

Hourly Weather History & Observations

Time (MDT) Temp. Windchill Dew Point Humidity Pressure Visibility Wind Dir Wind Speed Gust Speed Precip Events Conditions
12:55 AM 34.0 °F 27.2 °F 25.0 °F 70% 30.02 in 10.0 mi East 8.1 mph - N/A   Clear
1:55 AM 32.0 °F 24.8 °F 26.1 °F 79% 29.99 in 10.0 mi ENE 8.1 mph - N/A   Clear
2:55 AM 32.0 °F 25.6 °F 26.1 °F 79% 29.97 in 10.0 mi East 6.9 mph - N/A   Clear
3:55 AM 35.1 °F 27.4 °F 28.9 °F 78% 29.94 in 10.0 mi East 10.4 mph - N/A   Clear
4:55 AM 33.1 °F 24.9 °F 28.0 °F 82% 29.91 in 10.0 mi East 10.4 mph - N/A   Clear
5:55 AM 34.0 °F 26.0 °F 30.0 °F 85% 29.90 in 10.0 mi East 10.4 mph - N/A   Clear
6:55 AM 37.0 °F 29.8 °F 32.0 °F 82% 29.90 in 10.0 mi East 10.4 mph - N/A   Clear
7:55 AM 44.1 °F 39.5 °F 36.0 °F 73% 29.89 in 10.0 mi East 8.1 mph - N/A   Clear
8:55 AM 52.0 °F - 39.0 °F 61% 29.86 in 10.0 mi SSE 9.2 mph - N/A   Clear
9:55 AM 55.0 °F - 39.9 °F 57% 29.85 in 10.0 mi SE 8.1 mph - N/A   Clear
10:55 AM 61.0 °F - 41.0 °F 48% 29.82 in 10.0 mi SSE 11.5 mph - N/A   Clear
11:55 AM 66.0 °F - 39.9 °F 38% 29.78 in 10.0 mi SSE 13.8 mph - N/A   Clear
12:55 PM 73.9 °F - 42.1 °F 32% 29.73 in 10.0 mi SSE 12.7 mph 18.4 mph N/A   Clear
1:55 PM 80.1 °F - 39.9 °F 24% 29.68 in 10.0 mi South 12.7 mph 21.9 mph N/A   Clear
2:55 PM 82.0 °F - 37.0 °F 20% 29.65 in 10.0 mi SSW 21.9 mph 26.5 mph N/A   Clear
3:55 PM 82.0 °F - 39.9 °F 22% 29.60 in 10.0 mi SSW 26.5 mph 32.2 mph N/A   Clear
4:55 PM 81.0 °F - 41.0 °F 24% 29.59 in 10.0 mi South 25.3 mph 33.4 mph N/A   Clear
5:55 PM 78.1 °F - 37.0 °F 23% 29.58 in 10.0 mi South 20.7 mph 28.8 mph N/A   Clear
6:55 PM 73.9 °F - 39.0 °F 28% 29.57 in 10.0 mi South 16.1 mph - N/A   Clear
7:55 PM 71.1 °F - 37.9 °F 30% 29.56 in 10.0 mi South 18.4 mph - N/A   Clear
8:55 PM 70.0 °F - 39.9 °F 33% 29.58 in 10.0 mi South 18.4 mph - N/A   Clear
9:55 PM 68.0 °F - 39.0 °F 35% 29.60 in 10.0 mi SW 12.7 mph 17.3 mph N/A   Clear
10:55 PM 62.1 °F - 41.0 °F 46% 29.65 in 10.0 mi WNW 17.3 mph - N/A   Clear
11:55 PM 57.9 °F - 39.9 °F 51% 29.69 in 10.0 mi NW 16.1 mph 23.0 mph N/A   Clear